| time (UTC) | temp C | wind direction | speed KPH | gust KPH | rain 1hr cm | rain 24hr cm | rain mn cm | humidity % | barometer mb |
| 20260505073056 | 18 | 6 | 8.0 | 24.1 | 0.00 | 0.00 | 0.00 | 57 | 999.6 |
| 20260505071557 | 18 | 281 | 6.4 | 20.9 | 0.00 | 0.00 | 0.00 | 56 | 999.3 |
| 20260505070056 | 18 | 303 | 9.7 | 20.9 | 0.00 | 0.00 | 0.00 | 56 | 999.5 |
| 20260505064555 | 18 | 0 | 3.2 | 16.1 | 0.00 | 0.00 | 0.00 | 57 | 999.5 |
| 20260505063119 | 18 | 304 | 3.2 | 17.7 | 0.00 | 0.00 | 0.00 | 57 | 999.7 |
| 20260505061623 | 18 | 151 | 4.8 | 20.9 | 0.00 | 0.00 | 0.00 | 57 | 999.6 |
| 20260505060103 | 18 | 196 | 6.4 | 17.7 | 0.00 | 0.00 | 0.00 | 58 | 999.2 |
| 20260505054606 | 18 | 0 | 8.0 | 19.3 | 0.00 | 0.00 | 0.00 | 58 | 999.1 |
| 20260505053059 | 19 | 152 | 6.4 | 14.5 | 0.00 | 0.00 | 0.00 | 57 | 999.0 |
| 20260505051612 | 19 | 290 | 4.8 | 16.1 | 0.00 | 0.00 | 0.00 | 56 | 999.1 |
| 20260505041559 | 20 | 111 | 8.0 | 20.9 | 0.00 | 0.00 | 0.00 | 55 | 999.5 |
| 20260505040100 | 20 | 166 | 1.6 | 22.5 | 0.00 | 0.00 | 0.00 | 55 | 999.8 |
| 20260505034600 | 20 | 66 | 4.8 | 19.3 | 0.00 | 0.00 | 0.00 | 55 | 999.6 |
| 20260505033056 | 20 | 276 | 4.8 | 17.7 | 0.00 | 0.00 | 0.00 | 55 | 999.6 |
| 20260505031604 | 20 | 205 | 4.8 | 16.1 | 0.00 | 0.00 | 0.00 | 56 | 999.7 |
| 20260505030103 | 20 | 122 | 4.8 | 14.5 | 0.00 | 0.00 | 0.00 | 56 | 999.4 |
| 20260505024556 | 20 | 254 | 3.2 | 20.9 | 0.00 | 0.00 | 0.00 | 56 | 999.2 |
| 20260505023056 | 20 | 274 | 6.4 | 24.1 | 0.00 | 0.00 | 0.00 | 55 | 999.1 |
| 20260505021601 | 21 | 279 | 8.0 | 19.3 | 0.00 | 0.00 | 0.00 | 55 | 999.0 |
| 20260505020104 | 21 | 281 | 11.3 | 20.9 | 0.00 | 0.00 | 0.00 | 54 | 998.7 |
| 20260505014554 | 21 | 283 | 8.0 | 14.5 | 0.00 | 0.00 | 0.00 | 54 | 998.5 |
| 20260505013104 | 21 | 271 | 6.4 | 17.7 | 0.00 | 0.00 | 0.00 | 53 | 998.4 |
| 20260505011557 | 21 | 290 | 4.8 | 16.1 | 0.00 | 0.00 | 0.00 | 53 | 998.5 |
| 20260505010112 | 22 | 293 | 6.4 | 19.3 | 0.00 | 0.00 | 0.00 | 53 | 998.4 |
| 20260505004553 | 22 | 342 | 6.4 | 19.3 | 0.00 | 0.00 | 0.00 | 51 | 998.3 |
| 20260505003056 | 22 | 283 | 6.4 | 14.5 | 0.00 | 0.00 | 0.00 | 50 | 998.4 |
| 20260505001600 | 22 | 267 | 6.4 | 16.1 | 0.00 | 0.00 | 0.00 | 49 | 998.4 |
| 20260505000057 | 23 | 188 | 3.2 | 16.1 | 0.00 | 0.00 | 0.00 | 47 | 998.5 |
| 20260504234554 | 23 | 162 | 3.2 | 16.1 | 0.00 | 0.00 | 0.00 | 46 | 998.5 |
| 20260504233106 | 23 | 285 | 6.4 | 20.9 | 0.00 | 0.00 | 0.00 | 45 | 998.8 |
| 20260504231552 | 23 | 150 | 9.7 | 29.0 | 0.00 | 0.00 | 0.00 | 44 | 998.8 |
| 20260504230057 | 23 | 243 | 8.0 | 32.2 | 0.00 | 0.00 | 0.00 | 44 | 998.8 |
| 20260504224552 | 23 | 264 | 9.7 | 37.0 | 0.00 | 0.00 | 0.00 | 43 | 998.7 |
| 20260504223051 | 24 | 156 | 4.8 | 46.7 | 0.00 | 0.00 | 0.00 | 44 | 999.1 |
| 20260504221553 | 24 | 251 | 11.3 | 30.6 | 0.00 | 0.00 | 0.00 | 44 | 999.1 |
| 20260504220051 | 23 | 197 | 4.8 | 22.5 | 0.00 | 0.00 | 0.00 | 45 | 999.0 |
| 20260504214555 | 23 | 155 | 3.2 | 14.5 | 0.00 | 0.00 | 0.00 | 47 | 999.4 |
| 20260504213052 | 23 | 276 | 1.6 | 17.7 | 0.00 | 0.00 | 0.00 | 49 | 999.5 |
| 20260504211551 | 23 | 104 | 6.4 | 14.5 | 0.00 | 0.00 | 0.00 | 49 | 999.8 |
| 20260504210105 | 23 | 104 | 12.9 | 27.4 | 0.00 | 0.00 | 0.00 | 48 | 999.9 |
| 20260504204559 | 23 | 111 | 9.7 | 29.0 | 0.00 | 0.00 | 0.00 | 49 | 1000.1 |
| 20260504203105 | 23 | 101 | 0.0 | 12.9 | 0.00 | 0.00 | 0.00 | 50 | 1000.2 |
| 20260504201555 | 22 | 203 | 9.7 | 25.7 | 0.00 | 0.00 | 0.00 | 51 | 1000.3 |
| 20260504200055 | 22 | 111 | 17.7 | 27.4 | 0.00 | 0.00 | 0.00 | 51 | 1000.6 |
| 20260504194555 | 22 | 106 | 19.3 | 29.0 | 0.00 | 0.00 | 0.00 | 51 | 1001.0 |
| 20260504193051 | 21 | 104 | 17.7 | 30.6 | 0.00 | 0.00 | 0.00 | 52 | 1001.3 |
| 20260504191550 | 21 | 100 | 20.9 | 32.2 | 0.00 | 0.00 | 0.00 | 55 | 1001.3 |
| 20260504190121 | 21 | 111 | 11.3 | 19.3 | 0.00 | 0.00 | 0.00 | 57 | 1001.6 |
| 20260504184553 | 20 | 111 | 11.3 | 37.0 | 0.00 | 0.00 | 0.00 | 58 | 1001.7 |
| 20260504183050 | 20 | 254 | 8.0 | 25.7 | 0.00 | 0.00 | 0.00 | 58 | 1001.7 |
| 20260504181555 | 20 | 117 | 8.0 | 35.4 | 0.00 | 0.00 | 0.00 | 60 | 1001.6 |
| 20260504180054 | 19 | 290 | 6.4 | 30.6 | 0.00 | 0.00 | 0.00 | 59 | 1001.4 |
| 20260504174558 | 19 | 32 | 1.6 | 20.9 | 0.00 | 0.00 | 0.00 | 59 | 1001.2 |
| 20260504173052 | 18 | 335 | 6.4 | 20.9 | 0.00 | 0.00 | 0.00 | 58 | 1001.4 |
| 20260504171553 | 18 | 257 | 11.3 | 27.4 | 0.00 | 0.00 | 0.00 | 58 | 1001.4 |
| 20260504160107 | 18 | 0 | 8.0 | 19.3 | 0.00 | 0.00 | 0.00 | 60 | 1002.2 |
| 20260504081600 | 11 | 316 | 6.4 | 14.5 | 0.00 | 0.00 | 0.00 | 59 | 1003.6 |